Home > Weather > Kagoshima > Past weeks

Flag for Japan Weather for the Past 2 Weeks in Kagoshima, Japan

Now
69 °F

Overcast.


Feels Like: 69 °F
Forecast: 61 / 71 °F
Wind: 10 mph from Southeast

Location: Kagoshima

Current Time: May 2, 2016 at 10:22:18 PM

Latest Report: May 2, 2016 at 9:00 PM


Visibility: 19 mi

Pressure: 30.03 "Hg

Humidity: 64%

Dew Point: 56 °F

Location of KagoshimaLocation

Historic Weather in Kagoshima — Graph

°F

Kagoshima Temperature Yesterday

Maximum temperature yesterday: 76 °F (at 6:00 PM)
Minimum temperature yesterday: 58 °F (at 4:00 AM)
Average temperature yesterday: 66 °F

High & Low Weather Summary for the Past Weeks

 TemperatureHumidityPressure
High79 °F (May 2, 3:00 PM)100% (Apr 27, 8:00 PM)30.23 "Hg (Apr 27, 8:00 PM)
Low49 °F (Apr 19, 6:00 AM)25% (Apr 29, 3:00 PM)29.56 "Hg (Apr 28, 5:00 AM)
Average64 °F79%29.95 "Hg
* Reported Apr 17 9:00 PM — May 2 9:00 PM, Kagoshima, Weather by CustomWeather, © 2016

Note: Actual official high and low records may vary slightly from our data, if they occured in-between our weather recording intervals... More about our weather records

Advertising

Kagoshima Weather History for the Previous 24 Hours

Scroll right to see more
 ConditionsComfort  
Time TempWeatherWind HumidityBarometerVisibility
9:00 PM
Mon, May 2
69 °FOvercast.10 mph64%30.03 "Hg19 mi
8:00 PM70 °FMild.14 mph60%30.02 "HgN/A
7:00 PM71 °FMild.10 mph62%30.02 "HgN/A
6:00 PM72 °FOvercast.14 mph61%30.01 "Hg31 mi
5:00 PM75 °FMild.12 mph52%30.01 "HgN/A
4:00 PM76 °FMild.17 mph54%30.00 "HgN/A
3:00 PM79 °FOvercast.14 mph53%30.03 "Hg16 mi
10:00 AM71 °FMild.5 mph68%30.10 "HgN/A
5:00 AM61 °FCool.7 mph86%30.07 "HgN/A
4:00 AM62 °FCool.8 mph85%30.07 "HgN/A
3:00 AM62 °FPassing clouds.7 mph85%30.06 "Hg12 mi
2:00 AM64 °FMild.7 mph82%30.07 "HgN/A
1:00 AM63 °FMild.7 mph83%30.08 "HgN/A
12:00 AM64 °FMild.6 mph81%30.09 "HgN/A
11:00 PM
Sun, May 1
66 °FMild.5 mph76%30.08 "HgN/A
10:00 PM68 °FMild.5 mph72%30.08 "HgN/A
Weather by CustomWeather, © 2016

See weather overviewHow to use our weather pages